Time,TemperatureF,DewpointF,PressureIn,WindDirection,WindDirectionDegrees,WindSpeedMPH,WindSpeedGustMPH,Humidity,HourlyPrecipIn,Conditions,Clouds,dailyrainin,SoftwareType,DateUTC
2013-01-16 00:02:00,39.0,36.0,30.65,NE,53,1.0,3.0,90,0.00,,,0.01,,2013-01-16 08:02:00,
2013-01-16 00:11:00,39.0,36.0,30.65,NE,53,1.0,3.0,90,0.00,,,0.01,,2013-01-16 08:11:00,
2013-01-16 00:22:00,39.0,36.0,30.65,NNE,32,0.0,2.0,90,0.00,,,0.01,,2013-01-16 08:22:00,
2013-01-16 00:32:00,39.0,36.0,30.65,NNE,26,1.0,2.0,90,0.00,,,0.01,,2013-01-16 08:32:00,
2013-01-16 00:42:00,39.0,36.0,30.65,NNE,26,1.0,2.0,90,0.00,,,0.01,,2013-01-16 08:42:00,
2013-01-16 00:52:00,39.0,36.0,30.65,NNE,24,0.0,1.0,90,0.00,,,0.01,,2013-01-16 08:52:00,
2013-01-16 01:02:00,39.0,36.0,30.65,NNE,24,0.0,1.0,90,0.00,,,0.01,,2013-01-16 09:02:00,
2013-01-16 01:11:00,39.0,36.0,30.65,NNE,24,0.0,1.0,90,0.00,,,0.01,,2013-01-16 09:11:00,
2013-01-16 01:22:00,39.0,36.0,30.65,North,0,0.0,0.0,90,0.00,,,0.01,,2013-01-16 09:22:00,
2013-01-16 01:32:00,39.0,36.0,30.65,NNE,24,0.0,1.0,90,0.00,,,0.01,,2013-01-16 09:32:00,
2013-01-16 01:42:00,39.0,36.0,30.65,NNE,24,0.0,1.0,90,0.00,,,0.01,,2013-01-16 09:42:00,
2013-01-16 01:52:00,39.0,36.0,30.65,NNE,24,0.0,2.0,90,0.00,,,0.01,,2013-01-16 09:52:00,
2013-01-16 02:02:00,39.0,36.0,30.65,NNE,24,0.0,2.0,90,0.00,,,0.01,,2013-01-16 10:02:00,
2013-01-16 02:11:00,39.0,36.0,30.65,NNE,24,0.0,2.0,90,0.00,,,0.01,,2013-01-16 10:11:00,
2013-01-16 02:22:00,39.0,36.0,30.66,NE,37,1.0,3.0,89,0.00,,,0.01,,2013-01-16 10:22:00,
2013-01-16 02:32:00,39.0,36.0,30.66,North,0,0.0,0.0,89,0.00,,,0.01,,2013-01-16 10:32:00,
2013-01-16 02:42:00,39.0,36.0,30.66,North,0,0.0,0.0,89,0.00,,,0.01,,2013-01-16 10:42:00,
2013-01-16 02:52:00,39.0,36.0,30.66,NE,34,1.0,2.0,89,0.00,,,0.01,,2013-01-16 10:52:00,
2013-01-16 03:02:00,39.0,36.0,30.66,North,352,2.0,3.0,89,0.00,,,0.01,,2013-01-16 11:02:00,
2013-01-16 03:11:00,39.0,36.0,30.66,North,352,2.0,3.0,89,0.00,,,0.01,,2013-01-16 11:11:00,
2013-01-16 03:22:00,39.0,36.0,30.66,NNW,337,0.0,2.0,90,0.00,,,0.00,,2013-01-16 11:22:00,
2013-01-16 03:32:00,39.0,36.0,30.66,NW,308,1.0,3.0,90,0.00,,,0.00,,2013-01-16 11:32:00,
2013-01-16 03:42:00,39.0,36.0,30.66,NW,308,1.0,3.0,90,0.00,,,0.00,,2013-01-16 11:42:00,
2013-01-16 03:52:00,38.0,35.0,30.66,NNE,12,1.0,5.0,90,0.00,,,0.00,,2013-01-16 11:52:00,
2013-01-16 04:02:00,38.0,35.0,30.65,North,3,2.0,4.0,90,0.00,,,0.00,,2013-01-16 12:02:00,
2013-01-16 04:12:00,38.0,35.0,30.65,North,3,2.0,4.0,90,0.00,,,0.00,,2013-01-16 12:12:00,
2013-01-16 04:22:00,38.0,35.0,30.65,North,353,1.0,3.0,89,0.00,,,0.00,,2013-01-16 12:22:00,
2013-01-16 04:32:00,38.0,35.0,30.64,NNE,16,1.0,4.0,89,0.00,,,0.00,,2013-01-16 12:32:00,
2013-01-16 04:42:00,38.0,35.0,30.64,NNE,16,1.0,4.0,89,0.00,,,0.00,,2013-01-16 12:42:00,
2013-01-16 04:52:00,38.0,35.0,30.64,North,9,1.0,3.0,89,0.00,,,0.00,,2013-01-16 12:52:00,
2013-01-16 05:02:00,38.0,35.0,30.63,North,358,0.0,2.0,89,0.00,,,0.00,,2013-01-16 13:02:00,
2013-01-16 05:12:00,38.0,35.0,30.63,North,358,0.0,2.0,89,0.00,,,0.00,,2013-01-16 13:12:00,
2013-01-16 05:22:00,38.0,35.0,30.63,NNE,21,0.0,3.0,89,0.00,,,0.00,,2013-01-16 13:22:00,
2013-01-16 05:32:00,38.0,35.0,30.63,NNE,23,1.0,3.0,89,0.00,,,0.00,,2013-01-16 13:32:00,
2013-01-16 05:42:00,38.0,35.0,30.63,NNE,23,1.0,3.0,89,0.00,,,0.00,,2013-01-16 13:42:00,
2013-01-16 05:52:00,38.0,35.0,30.62,NNE,13,0.0,2.0,89,0.00,,,0.00,,2013-01-16 13:52:00,
2013-01-16 06:02:00,38.0,35.0,30.62,NNE,27,1.0,3.0,89,0.00,,,0.00,,2013-01-16 14:02:00,
2013-01-16 06:11:00,38.0,35.0,30.62,NNE,27,1.0,3.0,89,0.00,,,0.00,,2013-01-16 14:11:00,
2013-01-16 06:22:00,38.0,35.0,30.61,NE,35,0.0,3.0,89,0.00,,,0.00,,2013-01-16 14:22:00,
2013-01-16 06:32:00,38.0,35.0,30.61,NE,35,0.0,3.0,89,0.00,,,0.00,,2013-01-16 14:32:00,
2013-01-16 06:42:00,38.0,35.0,30.61,NE,35,0.0,3.0,89,0.00,,,0.00,,2013-01-16 14:42:00,
2013-01-16 06:52:00,38.0,35.0,30.60,North,0,0.0,0.0,89,0.00,,,0.00,,2013-01-16 14:52:00,
2013-01-16 07:02:00,38.0,35.0,30.60,NE,35,0.0,2.0,90,0.00,,,0.00,,2013-01-16 15:02:00,
2013-01-16 07:11:00,38.0,35.0,30.60,NE,35,0.0,2.0,90,0.00,,,0.00,,2013-01-16 15:11:00,
2013-01-16 07:22:00,38.0,35.0,30.60,NE,35,0.0,2.0,89,0.00,,,0.00,,2013-01-16 15:22:00,
2013-01-16 07:32:00,38.0,35.0,30.61,NE,35,0.0,2.0,90,0.00,,,0.00,,2013-01-16 15:32:00,
2013-01-16 07:42:00,38.0,35.0,30.61,NE,35,0.0,2.0,90,0.00,,,0.00,,2013-01-16 15:42:00,
2013-01-16 07:52:00,38.0,35.0,30.61,NNE,28,2.0,4.0,89,0.00,,,0.00,,2013-01-16 15:52:00,
2013-01-16 08:02:00,38.0,35.0,30.61,NNE,27,2.0,4.0,89,0.00,,,0.00,,2013-01-16 16:02:00,
2013-01-16 08:11:00,38.0,35.0,30.61,NNE,27,2.0,4.0,89,0.00,,,0.00,,2013-01-16 16:11:00,
2013-01-16 08:22:00,38.0,35.0,30.61,NE,35,2.0,6.0,89,0.00,,,0.00,,2013-01-16 16:22:00,
2013-01-16 08:32:00,38.0,35.0,30.62,NNE,24,2.0,4.0,89,0.00,,,0.00,,2013-01-16 16:32:00,
2013-01-16 08:42:00,38.0,35.0,30.62,NNE,24,2.0,4.0,89,0.00,,,0.00,,2013-01-16 16:42:00,
2013-01-16 08:52:00,38.0,35.0,30.62,NE,36,1.0,3.0,89,0.00,,,0.00,,2013-01-16 16:52:00,
2013-01-16 09:02:00,38.0,35.0,30.61,NNE,24,1.0,3.0,89,0.00,,,0.00,,2013-01-16 17:02:00,
2013-01-16 09:12:00,38.0,35.0,30.61,NNE,24,1.0,3.0,89,0.00,,,0.00,,2013-01-16 17:12:00,
2013-01-16 09:22:00,38.0,35.0,30.62,NE,40,2.0,4.0,88,0.00,,,0.00,,2013-01-16 17:22:00,
2013-01-16 09:32:00,39.0,35.0,30.62,NE,44,2.0,5.0,87,0.00,,,0.00,,2013-01-16 17:32:00,
2013-01-16 09:42:00,39.0,35.0,30.62,NE,44,2.0,5.0,87,0.00,,,0.00,,2013-01-16 17:42:00,
2013-01-16 09:52:00,39.0,35.0,30.62,NE,50,2.0,5.0,85,0.00,,,0.00,,2013-01-16 17:52:00,
2013-01-16 10:02:00,39.0,35.0,30.62,NE,38,1.0,3.0,84,0.00,,,0.00,,2013-01-16 18:02:00,
2013-01-16 10:12:00,39.0,35.0,30.62,NE,38,1.0,3.0,84,0.00,,,0.00,,2013-01-16 18:12:00,
2013-01-16 10:22:00,40.0,36.0,30.62,NE,34,1.0,4.0,84,0.00,,,0.00,,2013-01-16 18:22:00,
2013-01-16 10:33:00,40.0,36.0,30.62,NE,39,2.0,5.0,84,0.00,,,0.00,,2013-01-16 18:33:00,
2013-01-16 10:42:00,40.0,36.0,30.62,NE,39,2.0,5.0,84,0.00,,,0.00,,2013-01-16 18:42:00,
2013-01-16 10:52:00,40.0,36.0,30.62,NNE,25,2.0,5.0,84,0.00,,,0.00,,2013-01-16 18:52:00,
2013-01-16 11:02:00,40.0,36.0,30.62,NNE,30,2.0,4.0,84,0.00,,,0.00,,2013-01-16 19:02:00,
2013-01-16 11:12:00,40.0,36.0,30.62,NNE,30,2.0,4.0,84,0.00,,,0.00,,2013-01-16 19:12:00,
2013-01-16 11:22:00,40.0,36.0,30.61,NE,42,1.0,5.0,84,0.00,,,0.00,,2013-01-16 19:22:00,
2013-01-16 11:32:00,40.0,36.0,30.61,NNE,21,2.0,4.0,84,0.00,,,0.00,,2013-01-16 19:32:00,
2013-01-16 11:42:00,40.0,36.0,30.61,NNE,21,2.0,4.0,84,0.00,,,0.00,,2013-01-16 19:42:00,
2013-01-16 11:52:00,40.0,36.0,30.61,NNE,24,2.0,4.0,84,0.00,,,0.00,,2013-01-16 19:52:00,
2013-01-16 12:02:00,40.0,36.0,30.60,NNE,19,1.0,4.0,84,0.00,,,0.00,,2013-01-16 20:02:00,
2013-01-16 12:11:00,40.0,36.0,30.60,NNE,19,1.0,4.0,84,0.00,,,0.00,,2013-01-16 20:11:00,
2013-01-16 12:22:00,40.0,35.0,30.59,North,355,2.0,4.0,83,0.00,,,0.00,,2013-01-16 20:22:00,
2013-01-16 12:32:00,40.0,35.0,30.58,NNE,31,2.0,6.0,83,0.00,,,0.00,,2013-01-16 20:32:00,
2013-01-16 12:42:00,40.0,35.0,30.58,NNE,31,2.0,6.0,83,0.00,,,0.00,,2013-01-16 20:42:00,
2013-01-16 12:52:00,40.0,35.0,30.59,NNW,334,2.0,6.0,82,0.00,,,0.00,,2013-01-16 20:52:00,
2013-01-16 13:02:00,40.0,35.0,30.58,North,5,2.0,4.0,83,0.00,,,0.00,,2013-01-16 21:02:00,
2013-01-16 13:12:00,40.0,35.0,30.58,North,5,2.0,4.0,83,0.00,,,0.00,,2013-01-16 21:12:00,
2013-01-16 13:22:00,40.0,35.0,30.58,NNE,17,2.0,5.0,83,0.00,,,0.00,,2013-01-16 21:22:00,
2013-01-16 13:32:00,40.0,35.0,30.58,NNE,13,3.0,6.0,83,0.00,,,0.00,,2013-01-16 21:32:00,
2013-01-16 13:42:00,40.0,35.0,30.58,NNE,13,3.0,6.0,83,0.00,,,0.00,,2013-01-16 21:42:00,
2013-01-16 13:52:00,40.0,35.0,30.57,North,9,2.0,6.0,82,0.00,,,0.00,,2013-01-16 21:52:00,
2013-01-16 14:02:00,40.0,35.0,30.57,NNE,27,3.0,6.0,82,0.00,,,0.00,,2013-01-16 22:02:00,
2013-01-16 14:11:00,40.0,35.0,30.57,NNE,27,3.0,6.0,82,0.00,,,0.00,,2013-01-16 22:11:00,
2013-01-16 14:22:00,40.0,35.0,30.56,NE,52,1.0,4.0,82,0.00,,,0.00,,2013-01-16 22:22:00,
2013-01-16 14:32:00,40.0,35.0,30.56,NE,38,1.0,5.0,82,0.00,,,0.00,,2013-01-16 22:32:00,
2013-01-16 14:42:00,40.0,35.0,30.56,NE,38,1.0,5.0,82,0.00,,,0.00,,2013-01-16 22:42:00,
2013-01-16 14:52:00,40.0,35.0,30.56,NE,43,2.0,5.0,82,0.00,,,0.00,,2013-01-16 22:52:00,
2013-01-16 15:02:00,40.0,35.0,30.56,NNE,12,2.0,4.0,82,0.00,,,0.00,,2013-01-16 23:02:00,
2013-01-16 15:12:00,40.0,35.0,30.56,NNE,31,3.0,6.0,83,0.00,,,0.00,,2013-01-16 23:12:00,
2013-01-16 15:22:00,40.0,35.0,30.56,NNE,31,3.0,6.0,83,0.00,,,0.00,,2013-01-16 23:22:00,
2013-01-16 15:32:00,40.0,35.0,30.56,NNE,28,3.0,6.0,83,0.00,,,0.00,,2013-01-16 23:32:00,
2013-01-16 15:42:00,40.0,35.0,30.56,NNE,28,3.0,6.0,83,0.00,,,0.00,,2013-01-16 23:42:00,
2013-01-16 15:52:00,40.0,36.0,30.55,NE,40,2.0,4.0,84,0.00,,,0.00,,2013-01-16 23:52:00,
2013-01-16 16:02:00,40.0,36.0,30.55,NNE,28,3.0,5.0,84,0.00,,,0.00,,2013-01-17 00:02:00,
2013-01-16 16:11:00,40.0,36.0,30.55,NNE,28,3.0,5.0,84,0.00,,,0.00,,2013-01-17 00:11:00,
2013-01-16 16:22:00,39.0,35.0,30.55,NNE,31,2.0,5.0,85,0.00,,,0.00,,2013-01-17 00:22:00,
2013-01-16 16:32:00,39.0,35.0,30.56,North,1,2.0,6.0,85,0.00,,,0.00,,2013-01-17 00:32:00,
2013-01-16 16:42:00,39.0,35.0,30.56,North,1,2.0,6.0,85,0.00,,,0.00,,2013-01-17 00:42:00,
2013-01-16 16:52:00,39.0,35.0,30.56,NNE,23,2.0,5.0,86,0.00,,,0.00,,2013-01-17 00:52:00,
2013-01-16 17:02:00,39.0,35.0,30.56,NNE,26,2.0,5.0,86,0.00,,,0.00,,2013-01-17 01:02:00,
2013-01-16 17:11:00,39.0,35.0,30.56,NNE,26,2.0,5.0,86,0.00,,,0.00,,2013-01-17 01:11:00,
2013-01-16 17:22:00,39.0,35.0,30.55,NNE,17,1.0,5.0,87,0.00,,,0.00,,2013-01-17 01:22:00,
2013-01-16 17:32:00,39.0,35.0,30.55,NNE,15,1.0,4.0,87,0.00,,,0.00,,2013-01-17 01:32:00,
2013-01-16 17:42:00,39.0,35.0,30.55,NNE,15,1.0,4.0,87,0.00,,,0.00,,2013-01-17 01:42:00,
2013-01-16 17:52:00,38.0,34.0,30.55,North,8,2.0,5.0,87,0.00,,,0.00,,2013-01-17 01:52:00,
2013-01-16 18:01:00,38.0,35.0,30.55,NNE,12,1.0,4.0,88,0.00,,,0.00,,2013-01-17 02:01:00,
2013-01-16 18:12:00,38.0,35.0,30.55,NNE,12,1.0,4.0,88,0.00,,,0.00,,2013-01-17 02:12:00,
2013-01-16 18:22:00,38.0,35.0,30.55,NNE,26,2.0,6.0,88,0.00,,,0.00,,2013-01-17 02:22:00,
2013-01-16 18:32:00,39.0,36.0,30.55,NNE,31,2.0,6.0,88,0.00,,,0.00,,2013-01-17 02:32:00,
2013-01-16 18:42:00,39.0,36.0,30.55,NNE,31,2.0,6.0,88,0.00,,,0.00,,2013-01-17 02:42:00,
2013-01-16 18:52:00,39.0,36.0,30.55,NNE,31,2.0,6.0,88,0.00,,,0.00,,2013-01-17 02:52:00,
2013-01-16 19:02:00,38.0,35.0,30.54,NNE,27,2.0,5.0,88,0.00,,,0.00,,2013-01-17 03:02:00,
2013-01-16 19:11:00,38.0,35.0,30.54,NNE,27,2.0,5.0,88,0.00,,,0.00,,2013-01-17 03:11:00,
2013-01-16 19:22:00,38.0,35.0,30.54,NE,34,2.0,5.0,88,0.00,,,0.00,,2013-01-17 03:22:00,
2013-01-16 19:32:00,38.0,35.0,30.54,NE,36,2.0,5.0,88,0.00,,,0.00,,2013-01-17 03:32:00,
2013-01-16 19:42:00,38.0,35.0,30.54,NE,36,2.0,5.0,88,0.00,,,0.00,,2013-01-17 03:42:00,
2013-01-16 19:52:00,38.0,35.0,30.54,NNE,24,2.0,7.0,88,0.00,,,0.00,,2013-01-17 03:52:00,
2013-01-16 20:02:00,38.0,35.0,30.53,NE,42,1.0,4.0,88,0.00,,,0.00,,2013-01-17 04:02:00,
2013-01-16 20:11:00,38.0,35.0,30.53,NNE,22,1.0,5.0,88,0.00,,,0.00,,2013-01-17 04:11:00,
2013-01-16 20:22:00,38.0,35.0,30.53,NNE,22,1.0,5.0,88,0.00,,,0.00,,2013-01-17 04:22:00,
2013-01-16 20:32:00,38.0,35.0,30.53,NE,36,1.0,4.0,88,0.00,,,0.00,,2013-01-17 04:32:00,
2013-01-16 20:42:00,38.0,35.0,30.53,NE,36,1.0,4.0,88,0.00,,,0.00,,2013-01-17 04:42:00,
2013-01-16 20:52:00,38.0,35.0,30.53,NE,39,2.0,6.0,88,0.00,,,0.00,,2013-01-17 04:52:00,
2013-01-16 21:02:00,38.0,35.0,30.53,NE,40,2.0,5.0,88,0.00,,,0.00,,2013-01-17 05:02:00,
2013-01-16 21:12:00,38.0,35.0,30.53,NE,40,2.0,5.0,88,0.00,,,0.00,,2013-01-17 05:12:00,
2013-01-16 21:22:00,38.0,35.0,30.52,NE,38,3.0,8.0,88,0.00,,,0.00,,2013-01-17 05:22:00,
2013-01-16 21:32:00,38.0,35.0,30.53,NNE,31,3.0,5.0,88,0.00,,,0.00,,2013-01-17 05:32:00,
2013-01-16 21:42:00,38.0,35.0,30.53,NNE,31,3.0,5.0,88,0.00,,,0.00,,2013-01-17 05:42:00,
2013-01-16 21:52:00,38.0,35.0,30.53,NE,35,2.0,5.0,88,0.00,,,0.00,,2013-01-17 05:52:00,
2013-01-16 22:02:00,38.0,35.0,30.52,NNE,32,2.0,5.0,88,0.00,,,0.00,,2013-01-17 06:02:00,
2013-01-16 22:11:00,38.0,35.0,30.52,NNE,26,1.0,5.0,88,0.00,,,0.00,,2013-01-17 06:11:00,
2013-01-16 22:22:00,38.0,35.0,30.52,NNE,26,1.0,5.0,88,0.00,,,0.00,,2013-01-17 06:22:00,
2013-01-16 22:32:00,38.0,35.0,30.52,NNE,25,2.0,5.0,89,0.00,,,0.00,,2013-01-17 06:32:00,
2013-01-16 22:42:00,38.0,35.0,30.52,NNE,25,2.0,5.0,89,0.00,,,0.00,,2013-01-17 06:42:00,
2013-01-16 22:52:00,38.0,35.0,30.51,NNE,33,1.0,3.0,89,0.00,,,0.00,,2013-01-17 06:52:00,
2013-01-16 23:02:00,37.0,34.0,30.51,NNE,30,2.0,7.0,89,0.00,,,0.00,,2013-01-17 07:02:00,
2013-01-16 23:11:00,37.0,34.0,30.51,NNE,30,2.0,7.0,89,0.00,,,0.00,,2013-01-17 07:11:00,
2013-01-16 23:22:00,37.0,34.0,30.51,NNE,21,2.0,4.0,89,0.00,,,0.00,,2013-01-17 07:22:00,
2013-01-16 23:32:00,37.0,34.0,30.51,NNE,28,1.0,5.0,90,0.00,,,0.00,,2013-01-17 07:32:00,
2013-01-16 23:42:00,37.0,34.0,30.51,NNE,28,1.0,5.0,90,0.00,,,0.00,,2013-01-17 07:42:00,
2013-01-16 23:52:00,37.0,34.0,30.51,NNE,30,1.0,5.0,90,0.00,,,0.00,,2013-01-17 07:52:00,